TimeEDT,TemperatureF,Dew PointF,Humidity,Sea Level PressureIn,VisibilityMPH,Wind Direction,Wind SpeedMPH,Gust SpeedMPH,PrecipitationIn,Events,Conditions,WindDirDegrees,DateUTC
12:15 AM,39.2,37.4,93,29.34,3.0,East,15.0,21.9,N/A,,Overcast,100,2013-04-19 04:15:00
12:34 AM,39.2,37.4,93,29.32,4.0,East,15.0,20.7,N/A,Rain,Light Rain,100,2013-04-19 04:34:00
12:55 AM,39.2,37.4,93,29.30,2.5,East,16.1,21.9,N/A,,Overcast,100,2013-04-19 04:55:00
1:15 AM,39.2,37.4,93,29.29,1.8,East,16.1,23.0,N/A,,Overcast,100,2013-04-19 05:15:00
1:34 AM,39.2,37.4,93,29.28,2.0,ESE,17.3,-,N/A,,Overcast,110,2013-04-19 05:34:00
1:55 AM,39.2,39.2,100,29.29,2.0,SE,11.5,24.2,N/A,,Overcast,130,2013-04-19 05:55:00
2:14 AM,39.2,39.2,100,29.28,2.5,ESE,15.0,-,N/A,,Overcast,120,2013-04-19 06:14:00
2:34 AM,41.0,39.2,93,29.27,2.5,SE,9.2,-,N/A,,Overcast,130,2013-04-19 06:34:00
2:55 AM,42.8,41.0,93,29.27,7.0,SSE,15.0,-,N/A,,Drizzle,150,2013-04-19 06:55:00
3:14 AM,42.8,41.0,93,29.26,1.8,South,18.4,24.2,N/A,,Overcast,170,2013-04-19 07:14:00
3:34 AM,41.0,39.2,93,29.25,0.5,South,18.4,29.9,N/A,,Overcast,170,2013-04-19 07:34:00
3:55 AM,41.0,39.2,93,29.23,2.0,South,16.1,25.3,N/A,,Overcast,180,2013-04-19 07:55:00
4:14 AM,39.2,39.2,100,29.25,7.0,South,20.7,29.9,N/A,,Overcast,180,2013-04-19 08:14:00
4:35 AM,39.2,37.4,93,29.23,7.0,South,19.6,24.2,N/A,,Overcast,190,2013-04-19 08:35:00
4:54 AM,39.2,37.4,93,29.22,10.0,South,15.0,24.2,N/A,,Overcast,190,2013-04-19 08:54:00
5:14 AM,37.4,37.4,100,29.22,10.0,South,12.7,17.3,N/A,,Overcast,180,2013-04-19 09:14:00
5:35 AM,37.4,37.4,100,29.21,10.0,South,12.7,21.9,N/A,,Overcast,180,2013-04-19 09:35:00
5:54 AM,37.4,35.6,93,29.21,5.0,South,15.0,23.0,N/A,,Overcast,180,2013-04-19 09:54:00
6:15 AM,37.4,35.6,93,29.20,10.0,South,18.4,24.2,N/A,,Overcast,180,2013-04-19 10:15:00
6:54 AM,37.4,35.6,93,29.20,10.0,South,20.7,26.5,N/A,,Overcast,180,2013-04-19 10:54:00
7:15 AM,37.4,33.8,87,29.20,10.0,South,20.7,32.2,N/A,,Overcast,180,2013-04-19 11:15:00
7:35 AM,37.4,33.8,87,29.20,10.0,South,19.6,31.1,N/A,,Overcast,190,2013-04-19 11:35:00
7:54 AM,37.4,33.8,87,29.19,10.0,South,19.6,29.9,N/A,,Overcast,190,2013-04-19 11:54:00
8:15 AM,35.6,33.8,93,29.18,10.0,South,20.7,34.5,N/A,,Overcast,190,2013-04-19 12:15:00
8:34 AM,35.6,33.8,93,29.18,10.0,South,20.7,27.6,N/A,,Overcast,190,2013-04-19 12:34:00
8:55 AM,35.6,33.8,93,29.17,10.0,South,19.6,31.1,N/A,,Overcast,190,2013-04-19 12:55:00
9:14 AM,35.6,33.8,93,29.17,10.0,South,16.1,28.8,N/A,,Overcast,190,2013-04-19 13:14:00
9:35 AM,35.6,32.0,87,29.16,10.0,SSW,20.7,28.8,N/A,,Overcast,200,2013-04-19 13:35:00
9:55 AM,35.6,33.8,93,29.16,10.0,SSW,17.3,29.9,N/A,,Overcast,200,2013-04-19 13:55:00
10:14 AM,35.6,32.0,87,29.15,10.0,South,20.7,28.8,N/A,,Overcast,190,2013-04-19 14:14:00
10:54 AM,35.6,30.2,81,29.15,10.0,SSW,20.7,31.1,N/A,,Overcast,210,2013-04-19 14:54:00
11:14 AM,35.6,30.2,81,29.14,10.0,South,16.1,23.0,N/A,,Overcast,190,2013-04-19 15:14:00
11:35 AM,35.6,30.2,81,29.14,10.0,SSW,18.4,31.1,N/A,,Overcast,200,2013-04-19 15:35:00
11:54 AM,35.6,30.2,81,29.14,10.0,South,19.6,26.5,N/A,,Overcast,170,2013-04-19 15:54:00
12:14 PM,35.6,30.2,81,29.14,10.0,South,26.5,31.1,N/A,,Overcast,190,2013-04-19 16:14:00
12:35 PM,35.6,30.2,81,29.14,10.0,South,17.3,32.2,N/A,,Overcast,190,2013-04-19 16:35:00
12:54 PM,35.6,30.2,81,29.13,10.0,South,16.1,31.1,N/A,,Overcast,180,2013-04-19 16:54:00
1:15 PM,35.6,30.2,81,29.13,5.0,South,16.1,31.1,N/A,,Overcast,190,2013-04-19 17:15:00
1:35 PM,35.6,30.2,81,29.12,7.0,South,19.6,28.8,N/A,,Overcast,180,2013-04-19 17:35:00
1:54 PM,35.6,30.2,81,29.11,10.0,SSW,27.6,34.5,N/A,,Overcast,200,2013-04-19 17:54:00
2:15 PM,35.6,30.2,81,29.11,7.0,South,17.3,33.4,N/A,,Overcast,180,2013-04-19 18:15:00
2:34 PM,35.6,32.0,87,29.10,7.0,South,20.7,33.4,N/A,,Overcast,190,2013-04-19 18:34:00
2:54 PM,35.6,32.0,87,29.10,10.0,South,20.7,25.3,N/A,,Overcast,190,2013-04-19 18:54:00
3:15 PM,35.6,33.8,93,29.10,10.0,SSW,23.0,28.8,N/A,,Overcast,210,2013-04-19 19:15:00
3:34 PM,35.6,32.0,87,29.11,5.0,SSW,20.7,-,N/A,Snow,Light Snow,210,2013-04-19 19:34:00
3:54 PM,35.6,32.0,87,29.12,3.0,SW,15.0,25.3,N/A,Snow,Light Snow,220,2013-04-19 19:54:00
4:14 PM,33.8,30.2,87,29.13,2.0,SW,18.4,26.5,N/A,Snow,Light Snow,220,2013-04-19 20:14:00
4:34 PM,35.6,28.4,75,29.15,10.0,SW,19.6,33.4,N/A,,Overcast,230,2013-04-19 20:34:00
5:14 PM,35.6,26.6,70,29.17,10.0,WSW,26.5,39.1,N/A,,Overcast,240,2013-04-19 21:14:00
5:34 PM,33.8,26.6,75,29.19,10.0,SW,24.2,38.0,N/A,,Overcast,230,2013-04-19 21:34:00
5:55 PM,32.0,26.6,80,29.20,3.0,SW,26.5,41.4,N/A,Snow,Light Snow,220,2013-04-19 21:55:00
6:14 PM,30.2,26.6,86,29.21,3.0,SW,31.1,35.7,N/A,Snow,Light Snow,230,2013-04-19 22:14:00
6:35 PM,30.2,26.6,86,29.22,0.5,SW,27.6,38.0,N/A,Snow,Light Snow,230,2013-04-19 22:35:00
6:55 PM,30.2,26.6,86,29.25,0.8,WSW,25.3,32.2,N/A,Snow,Light Snow,240,2013-04-19 22:55:00
7:14 PM,30.2,28.4,93,29.28,0.5,WSW,26.5,35.7,N/A,Snow,Light Snow,250,2013-04-19 23:14:00
7:34 PM,30.2,28.4,93,29.30,0.5,West,27.6,38.0,N/A,Snow,Light Snow,260,2013-04-19 23:34:00
7:54 PM,28.4,26.6,93,29.34,0.5,West,25.3,40.3,N/A,Snow,Light Snow,270,2013-04-19 23:54:00
8:14 PM,28.4,26.6,93,29.38,0.8,West,27.6,34.5,N/A,Snow,Light Snow,280,2013-04-20 00:14:00
8:34 PM,26.6,24.8,93,29.42,1.2,WNW,27.6,39.1,N/A,Snow,Light Snow,290,2013-04-20 00:34:00
8:55 PM,26.6,23.0,86,29.45,3.0,West,19.6,31.1,N/A,Snow,Light Snow,280,2013-04-20 00:55:00
9:14 PM,26.6,23.0,86,29.47,1.8,WNW,16.1,27.6,N/A,Snow,Light Snow,300,2013-04-20 01:14:00
9:35 PM,24.8,21.2,86,29.50,3.0,NW,18.4,26.5,N/A,Snow,Light Snow,310,2013-04-20 01:35:00
9:55 PM,24.8,21.2,86,29.53,3.0,WNW,16.1,24.2,N/A,Snow,Light Snow,300,2013-04-20 01:55:00
10:14 PM,24.8,21.2,86,29.54,3.0,WNW,15.0,26.5,N/A,Snow,Light Snow,290,2013-04-20 02:14:00
10:35 PM,24.8,19.4,80,29.56,3.0,WNW,12.7,24.2,N/A,Snow,Light Snow,300,2013-04-20 02:35:00
10:55 PM,24.8,19.4,80,29.57,7.0,NW,13.8,20.7,N/A,Snow,Light Snow,310,2013-04-20 02:55:00
11:14 PM,23.0,19.4,86,29.59,7.0,WNW,13.8,23.0,N/A,Snow,Light Snow,300,2013-04-20 03:14:00
11:35 PM,23.0,17.6,80,29.60,4.0,WNW,16.1,24.2,N/A,Snow,Light Snow,300,2013-04-20 03:35:00
11:54 PM,21.2,19.4,93,29.62,1.2,NW,12.7,21.9,N/A,Snow,Light Snow,320,2013-04-20 03:54:00